LogoCoinalyze
    Ad-Free Version 主页 市场 资金费率
    期货数据
    • 汇总数据 (币种)
    • 单币图表
    • 全局图表
    提醒
    TA
    Bitcoin Ethereum BNB Ripple Tron ZCash Dogecoin Monero Chainlink UNUS SED LEO Cardano Stellar Lumens Bitcoin Cash Litecoin Hedera Cronos Polkadot Ethereum Classic Algorand Cosmos Quant Dash VeChain Bitcoin SV BitTorrent Terra Tezos Decred Iota The Graph THETA Decentraland NEO Chiliz MultiversX Golem Horizen Basic Attention Token Qtum 0x DigiByte Beam RIF Token FTX Token Holo FUNToken Ontology Zilliqa aelf Nano Enjin Coin Ravencoin Mask Network Verge Siacoin Status WINk Waves IoTeX iExec RLC Power Ledger Steem Kyber Network Crystal Lisk Ark WOO Network IOST Ardor WAX Icon Storj Wanchain Loopring Bitcoin Diamond Augur AdEx Bitcoin Gold OmiseGO NEM MonaCoin BitShares Ren Komodo V Systems Nuls Mithril SOLVE Maker EOS Aion Nebulas HedgeTrade Bread Fetch.ai TomoChain Polygon Fantom Waltonchain GXChain Bytom Metaverse ETP MaidSafeCoin QASH
    排序方式:
    更多
    • API
    • K线形态
    • 捐赠
    • 联系我们
    • 网站地图
    • 隐私政策
    • 免责声明
    • Theme:
    简体中文
    • English
    • Français
    • Русский
    • Deutsch
    • Türkçe
    • Nederlands
    • Português (BR)
    • Español
    • 한국어
    • 日本語
     
    登录 / 注册
    Markets/ Pepe/ PEPE 至 USDT/ PEPEUSDT Perp OKX
    交易
    WL
    聊天
    统计
    新闻
    ⦷
    AAA
    0.0000037910 1000000.00000000 19:44:21
    0.0000037900 5000000.00000000 19:44:20
    0.0000037910 1000000.00000000 19:44:20
    0.0000037890 30000000.00000000 19:44:16
    0.0000037890 40000000.00000000 19:44:15
    0.0000037890 31000000.00000000 19:44:15
    0.0000037890 31000000.00000000 19:44:15
    0.0000037890 411000000.00000000 19:44:15
    0.0000037900 590000000.00000000 19:44:15
    0.0000037910 120000000.00000000 19:44:09
    0.0000037910 23000000.00000000 19:44:09
    0.0000037920 1000000.00000000 19:44:06
    0.0000037920 14000000.00000000 19:44:06
    0.0000037930 1000000.00000000 19:44:05
    0.0000037930 1000000.00000000 19:44:05
    0.0000037930 1000000.00000000 19:44:04
    0.0000037930 2000000.00000000 19:44:03
    0.0000037930 5000000.00000000 19:44:02
    0.0000037930 1000000.00000000 19:44:01
    0.0000037930 1000000.00000000 19:44:01
    0.0000037920 210000000.00000000 19:44:00
    0.0000037920 374000000.00000000 19:43:59
    0.0000037920 5000000.00000000 19:43:59
    0.0000037910 11000000.00000000 19:43:55
    0.0000037920 120000000.00000000 19:43:54
    0.0000037920 2000000.00000000 19:43:54
    0.0000037920 176000000.00000000 19:43:54
    0.0000037920 119000000.00000000 19:43:54
    0.0000037920 134000000.00000000 19:43:54
    0.0000037920 359000000.00000000 19:43:54
    0.0000037920 49000000.00000000 19:43:54
    0.0000037920 30000000.00000000 19:43:54
    0.0000037920 315000000.00000000 19:43:54
    0.0000037920 182000000.00000000 19:43:54
    0.0000037930 59000000.00000000 19:43:52
    0.0000037940 1000000.00000000 19:43:47
    0.0000037940 4000000.00000000 19:43:47
    0.0000037940 18000000.00000000 19:43:47
    0.0000037950 15000000.00000000 19:43:46
    0.0000037960 124000000.00000000 19:43:44
    0.0000037970 134000000.00000000 19:43:40
    0.0000037980 14000000.00000000 19:43:37
    0.0000037980 1000000.00000000 19:43:35
    0.0000037980 1145000000.00000000 19:43:35
    0.0000037980 46000000.00000000 19:43:35
    0.0000037980 32000000.00000000 19:43:35
    0.0000037980 274000000.00000000 19:43:35
    0.0000037980 45000000.00000000 19:43:35
    0.0000037980 81000000.00000000 19:43:35
    0.0000037980 42000000.00000000 19:43:35
    0.0000037980 185000000.00000000 19:43:35
    0.0000037980 183000000.00000000 19:43:35
    0.0000037990 2000000.00000000 19:43:35
    0.0000037990 1000000.00000000 19:43:34
    0.0000037990 1000000.00000000 19:43:34
    0.0000037990 1000000.00000000 19:43:33
    0.0000037990 1000000.00000000 19:43:29
    0.0000037990 2000000.00000000 19:43:29
    0.0000037990 4000000.00000000 19:43:29
    0.0000037990 1000000.00000000 19:43:29
    0.0000037990 2000000.00000000 19:43:28
    0.0000037990 1000000.00000000 19:43:26
    0.0000037990 76000000.00000000 19:43:23
    0.0000037990 22000000.00000000 19:43:20
    0.0000038000 1000000.00000000 19:43:19
    0.0000038000 1000000.00000000 19:43:19
    0.0000038000 2000000.00000000 19:43:19
    0.0000038000 1000000.00000000 19:43:19
    0.0000038000 5000000.00000000 19:43:18
    0.0000038000 1000000.00000000 19:43:18
    0.0000038000 1000000.00000000 19:43:18
    0.0000037990 106000000.00000000 19:43:18
    0.0000037990 1000000.00000000 19:43:15
    0.0000037990 1000000.00000000 19:43:14
    0.0000037990 1000000.00000000 19:43:13
    0.0000037990 1000000.00000000 19:43:12
    0.0000037990 4000000.00000000 19:43:12
    0.0000037990 3000000.00000000 19:43:06
    0.0000037990 1360000000.00000000 19:43:06
    0.0000037990 7000000.00000000 19:43:03
    0.0000037990 1000000.00000000 19:43:03
    0.0000037990 25000000.00000000 19:43:00
    0.0000037990 35000000.00000000 19:43:00
    0.0000037990 524000000.00000000 19:43:00
    0.0000037990 177000000.00000000 19:43:00
    0.0000037990 2000000.00000000 19:42:58
    0.0000037990 1000000.00000000 19:42:57
    0.0000037990 3000000.00000000 19:42:57
    0.0000037990 1000000.00000000 19:42:57
    0.0000037990 1000000.00000000 19:42:56
    0.0000037990 157000000.00000000 19:42:56
    0.0000037990 1000000.00000000 19:42:55
    0.0000037980 12000000.00000000 19:42:55
    0.0000037990 2000000.00000000 19:42:55
    0.0000037990 1000000.00000000 19:42:53
    0.0000037990 5000000.00000000 19:42:52
    0.0000037990 1000000.00000000 19:42:52
    0.0000037990 1000000.00000000 19:42:52
    0.0000037990 1000000.00000000 19:42:51
    0.0000037990 2000000.00000000 19:42:50
    注销
    AAA
    帮助
    🙂 🤣 😎 🤗 😛 😉 😜 🤑 🤔 😑 😴 😕 🙃 😲 😇 🙁 😢 😬 😟 😠 🕺 🏃 💪 ✌ 👌 👍 👎 👏 👋 🤝 🍺 🍻 🐋 🐟 🦈 🗽 🚄 ✈ 🛑 🚀 🏦 🌚 ⭐ 🌞 ⚡ 🏆 💰 💲 🔨 ❓ ❗ 💯 🔶 🏁
    ☺
    登录 或 注册 并聊天
    24 小时
    变动
    +11.76%
    成交量
    38,387,135,000,000
    最高
    0.0000038790
    最低
    0.0000033840
    7 天
    变动
    -1.69%
    成交量
    245,788,329,000,000
    最高
    0.0000040130
    最低
    0.0000033580
    30 天
    变动
    +30.50%
    成交量
    1,124,450,099,000,000
    最高
    0.0000045600
    最低
    0.0000025260
    DOGE, SHIB, PEPE, or Something Else: Which Meme Coin Can Make History in September? (3 AIs Weigh In)
    "DOGE remains the most likely to record the largest move in dollar terms and lead the entire sector," ChatGPT stated.
    cryptopotato.com
    Sept 3, 2026 00:41
    Pepe price rallies 25% as whale demand and futures interest surge
    Key takeaways Pepe has gained 25% this week, including a combined 22% advance over the previous two days. Seven whale transactions worth more than $1 million each occurred Thursday, the highest...
    coinjournal.net
    Aug 21, 2026 08:41
    PEPE Supply on Exchanges Just Took a Massive Hit – What’s Next?
    A drop in PEPE exchange balances has added to bullish expectations despite muted trader interest.
    cryptopotato.com
    Aug 6, 2026 20:02
    PEPE Exchange Outflows Hit Nearly 2-Year High as Whales Accumulate
    Pepe (PEPE) recorded its largest single-day exchange outflow since November 2024, with 4.54 trillion tokens leaving trading platforms, signaling that holders are moving supply away from immediate...
    beincrypto.com
    Aug 6, 2026 04:57
    Meme Coin Based on White House Shooter Conspiracy Rallies 320%
    $HENRY surged 300% after a 2023 Pepe tweet appeared to name the White House shooter, fueling a viral time-travel meme. The post Meme Coin Based on White House Shooter Conspiracy Rallies 320%...
    beincrypto.com
    Apr 27, 2026 16:11
    PEPE surges 4% as market sentiment improves, eyes Key resistance breakout
    Key takeaways Pepe extends gains on Wednesday, stretching its rally from the 50-day EMA. Derivatives data show heightened retail activity as risk-on sentiment returns to the market. Pepe (PEPE) is...
    coinjournal.net
    Apr 22, 2026 11:44
    Why The PEPE Price Could Stage A 55X Rally To Reach New $0.0001 ATH
    The PEPE price has now started to edge back into bullish conversations after the recent inflows into the crypto market. The last time PEPE’s weekly chart printed the kind of structure now...
    newsbtc.com
    Apr 21, 2026 15:30
    Pepe (PEPE) surges 9%, drawing interest from whales
    Key takeaways PEPE is up 9% in the last 24 hours, making it one of the best performers among the top 50 cryptocurrencies by market cap. The rally comes amid renewed interest from whales and retail...
    coinjournal.net
    Apr 16, 2026 07:40
    Murad Says SPX6900 (SPX) Is Primed for a Rally — Is He Right This Time?
    Crypto influencer Murad Mahmudov claims SPX6900 (SPX) is stabilizing at the same market cap level where Dogecoin (DOGE) and Pepe (PEPE) consolidated before their explosive rallies. The...
    beincrypto.com
    Apr 5, 2026 21:36
    The Shiba Inu Of This Cycle: Analyst Shares Why It Is Better To Buy PEPE Now
    In the bull market cycle of 2021-2022, the Shiba Inu meme coin made waves in a way that changed the face of meme coins forever. This came after Dogecoin’s initial 36,000% rally, and Shiba Inu...
    newsbtc.com
    Apr 4, 2026 07:30
    PEPE Explodes by 18% Amid Altcoin Rally, BTC Tapped $74K: Market Watch
    The frog-themed meme coin is today's biggest gainer, followed by TAO, DOT, and BONK.
    cryptopotato.com
    Mar 16, 2026 10:56
    Should PEPE traders brace for volatility as short squeeze potential builds?
    The memecoin market has seen its collective market capitalization drop by 48% over the past year, and 6.9% over the past month, according to CoinMarketCap. According to Glassnode, the memecoin...
    ambcrypto.com
    Mar 7, 2026 18:00
    只需在聊天中输入命令即可。将 nick1 替换为实际的昵称。
    • /ignore nick1 忽略聊天用户
    • /unignore nick1 取消忽略聊天用户
    • /ignorelist 显示已忽略的聊天用户